2023/01/31 00:00:00,52.8,-0.3
2023/01/31 00:10:00,53.6,-0.6
2023/01/31 00:20:00,53.5,-0.4
2023/01/31 00:30:00,53.4,-0.4
2023/01/31 00:40:00,53.4,-0.4
2023/01/31 00:50:00,53.6,-0.7
2023/01/31 01:00:00,53.5,-0.7
2023/01/31 01:10:00,53.4,-0.5
2023/01/31 01:20:00,53.1,-0.4
2023/01/31 01:30:00,53.0,-0.6
2023/01/31 01:40:00,52.7,-0.7
2023/01/31 01:50:00,52.4,-0.7
2023/01/31 02:00:00,52.4,-0.6
2023/01/31 02:10:00,53.0,-0.6
2023/01/31 02:20:00,53.2,-0.6
2023/01/31 02:30:00,53.9,-0.4
2023/01/31 02:40:00,54.2,-0.4
2023/01/31 02:50:00,54.2,-0.5
2023/01/31 03:00:00,54.3,-0.5
2023/01/31 03:10:00,54.7,-0.5
2023/01/31 03:20:00,54.6,-0.6
2023/01/31 03:30:00,54.6,-0.7
2023/01/31 03:40:00,54.5,-0.8
2023/01/31 03:50:00,54.5,-0.4
2023/01/31 04:00:00,54.3,-0.8
2023/01/31 04:10:00,54.0,-1.0
2023/01/31 04:20:00,53.8,-0.6
2023/01/31 04:30:00,53.7,-0.7
2023/01/31 04:40:00,53.8,-0.8
2023/01/31 04:50:00,54.0,-1.0
2023/01/31 05:00:00,53.8,-1.2
2023/01/31 05:10:00,53.7,-0.8
2023/01/31 05:20:00,53.5,-0.9
2023/01/31 05:30:00,53.5,-1.1
2023/01/31 05:40:00,53.5,-1.2
2023/01/31 05:50:00,53.3,-0.9
2023/01/31 06:00:00,53.4,-1.0
2023/01/31 06:10:00,53.4,-1.1
2023/01/31 06:20:00,53.3,-1.2
2023/01/31 06:30:00,53.2,-1.1
2023/01/31 06:40:00,53.2,-1.1
2023/01/31 06:50:00,53.3,-1.1
2023/01/31 07:00:00,53.3,-1.0
2023/01/31 07:10:00,53.1,-1.2
2023/01/31 07:20:00,52.9,-1.2
2023/01/31 07:30:00,52.7,-0.9
2023/01/31 07:40:00,52.6,-0.6
2023/01/31 07:50:00,52.5,-0.8
2023/01/31 08:00:00,52.4,-0.4
2023/01/31 08:10:00,52.4,-0.5
2023/01/31 08:20:00,52.3, 0.0
2023/01/31 08:30:00,52.2, 0.3
2023/01/31 08:40:00,52.1, 0.3
2023/01/31 08:50:00,52.0, 0.6
2023/01/31 09:00:00,52.1, 1.0
2023/01/31 09:10:00,51.9, 1.4
2023/01/31 09:20:00,51.8, 1.9
2023/01/31 09:30:00,51.9, 2.0
2023/01/31 09:40:00,51.8, 2.5
2023/01/31 09:50:00,51.4, 2.4
2023/01/31 10:00:00,50.9, 3.5
2023/01/31 10:10:00,19.4, 6.0
2023/01/31 10:20:00,49.7, 6.5
2023/01/31 10:30:00,49.2, 6.7
2023/01/31 10:40:00,49.1, 4.5
2023/01/31 10:50:00,48.3, 6.0
2023/01/31 11:00:00,48.0, 7.0
2023/01/31 11:10:00,47.6, 7.1
2023/01/31 11:20:00,47.3, 7.0
2023/01/31 11:30:00,46.8, 7.3
2023/01/31 11:40:00,47.0, 7.1
2023/01/31 11:50:00,46.8, 7.4
2023/01/31 12:00:00,46.5, 7.1
2023/01/31 12:10:00,46.5, 7.0
2023/01/31 12:20:00,46.4, 7.8
2023/01/31 12:30:00,46.1, 7.2
2023/01/31 12:40:00,46.1, 5.5
2023/01/31 12:50:00,46.0, 4.9
2023/01/31 13:00:00,45.7, 4.0
2023/01/31 13:10:00,45.4, 4.2
2023/01/31 13:20:00,45.3, 4.9
2023/01/31 13:30:00,45.2, 5.6
2023/01/31 13:40:00,44.9, 5.1
2023/01/31 13:50:00,44.7, 4.9
2023/01/31 14:00:00,44.6, 5.2
2023/01/31 14:10:00,44.6, 4.8
2023/01/31 14:20:00,44.4, 5.6
2023/01/31 14:30:00,44.1, 4.5
2023/01/31 14:40:00,44.1, 3.7
2023/01/31 14:50:00,44.0, 3.9
2023/01/31 15:00:00,43.6, 4.1
2023/01/31 15:10:00,43.6, 3.4
2023/01/31 15:20:00,43.5, 2.9
2023/01/31 15:30:00,43.3, 2.9
2023/01/31 15:40:00,43.1, 2.5
2023/01/31 15:50:00,43.1, 1.7
2023/01/31 16:00:00,43.2, 2.1
2023/01/31 16:10:00,43.2, 2.2
2023/01/31 16:20:00,43.1, 2.2
2023/01/31 16:30:00,43.0, 1.7
2023/01/31 16:40:00,43.1, 1.3
2023/01/31 16:50:00,43.0, 1.1
2023/01/31 17:00:00,42.9, 0.7
2023/01/31 17:10:00,42.8, 0.5
2023/01/31 17:20:00,42.7, 0.4
2023/01/31 17:30:00,42.5, 0.1
2023/01/31 17:40:00,42.5, 0.2
2023/01/31 17:50:00,42.8, 0.0
2023/01/31 18:00:00,43.0,-0.2
2023/01/31 18:10:00,42.8,-0.6
2023/01/31 18:20:00,42.3,-0.5
2023/01/31 18:30:00,42.1,-0.5
2023/01/31 18:40:00,41.8,-0.4
2023/01/31 18:50:00,41.6,-0.8
2023/01/31 19:00:00,41.6,-0.9
2023/01/31 19:10:00,41.6,-1.0
2023/01/31 19:20:00,41.6,-1.0
2023/01/31 19:30:00,41.7,-0.8
2023/01/31 19:40:00,41.7,-0.9
2023/01/31 19:50:00,41.7,-1.1
2023/01/31 20:00:00,41.8,-1.2
2023/01/31 20:10:00,41.9,-1.3
2023/01/31 20:20:00,41.9,-1.5
2023/01/31 20:30:00,41.8,-2.0
2023/01/31 20:40:00,41.7,-1.7
2023/01/31 20:50:00,41.7,-1.7
2023/01/31 21:00:00,41.7,-1.7
2023/01/31 21:10:00,41.6,-2.0
2023/01/31 21:20:00,41.6,-1.0
2023/01/31 21:30:00,41.6,-1.9
2023/01/31 21:40:00,41.7,-1.7
2023/01/31 21:50:00,41.9,-1.8
2023/01/31 22:00:00,41.8,-2.4
2023/01/31 22:10:00,41.8,-2.3
2023/01/31 22:20:00,41.7,-2.3
2023/01/31 22:30:00,41.6,-2.4
2023/01/31 22:40:00,41.5,-2.3
2023/01/31 22:50:00,41.6,-3.0
2023/01/31 23:00:00,41.5,-2.8
2023/01/31 23:10:00,41.3,-2.6
2023/01/31 23:20:00,41.3,-2.7
2023/01/31 23:30:00,41.3,-2.9
2023/01/31 23:40:00,41.3,-2.9
2023/01/31 23:50:00,41.3,-2.9
